CYGNUS NG-15 (47689 NORAD) Tracking and Keplerian Element Data
This shows tracking and keplerian element data for the satellite.
Feedback or suggestion? Click here.
Element | Value |
Catalog | 47689 |
Name | CYGNUS NG-15 |
Epoch Orbit | 27130 |
Epoch Day | 56.60241222 |
Epoch Year | 2021 |
RAAN | 174.6318 |
Inclination | 51.6435 |
Eccentricity | 0.0002945 |
Argument of Perigee | 52.0711 |
Mean Anonmoly | 321.9096 |
Mean Motion | 15.49007129 |
Decay Rate | 2.054E-05 |
L1 | 1 47689U 21013A 21056.60241222 .00002054 00000-0 45416-4 0 9999 |
L2 | 2 47689 51.6435 174.6318 0002945 52.0711 321.9096 15.49007129271307 |
Live tracking and technical data element details for CYGNUS NG-15 (NORAD 47689). CYGNUS NG-15 can be tracked NOW for your location showing map with azimuth and elevation plus other details from your city location.
Track the satellite on the map from your city or location and see movement details for azimuth, elevation, latitude, longitude, range, height, and movement on the map or in text.
IsCatalogInMostPopularTable: catalog: 47689, numindb: -1
Insert: records affected: 1
GetName: 47689 CYGNUS NG-15
Hit Count: inserted at: Fri, 26 Feb 2021 09:51:18 GMT